Location: Newark
(45.6000°N, 12.8833°E)
Time: 00:17:18
(UTC+00:00)

A-11 Canister half - Visible Passes

Search period start: 12 November 2019 00:00
Search period end: 22 November 2019 00:00
Orbit: 1527 x 1682 km, 47.3° (Epoch: 10 November)

Date Brightness Start Highest point End Pass type
(mag) Time Alt. Az. Time Alt. Az. Time Alt. Az.
12 Nov 9.0 17:15:35 10° WNW 17:25:14 85° SSW 17:32:01 22° ESE visible
12 Nov 9.7 19:20:58 10° WNW 19:29:33 41° SW 19:30:20 40° SSW visible
13 Nov 9.0 16:53:55 10° WNW 17:03:37 86° SSW 17:11:56 14° ESE visible
13 Nov 9.7 18:59:16 10° WNW 19:07:59 43° SW 19:10:15 37° S visible
14 Nov 9.1 16:32:15 10° WNW 16:41:58 88° SSW 16:51:23 10° ESE visible
14 Nov 9.7 18:37:36 10° WNW 18:46:25 45° SW 18:50:17 31° S visible
14 Nov 11.0 20:46:25 10° WSW 20:48:38 12° WSW 20:48:38 12° WSW visible
15 Nov 9.1 16:10:34 10° WNW 16:20:20 89° SSW 16:29:46 10° ESE visible
15 Nov 9.7 18:15:55 10° WNW 18:24:50 47° SW 18:30:27 23° SSE visible
15 Nov 10.9 20:24:09 10° W 20:27:53 13° WSW 20:28:49 13° SW visible
16 Nov 9.1 15:48:54 10° WNW 15:58:41 90° NNE 16:08:09 10° ESE visible
16 Nov 9.7 17:54:14 10° WNW 18:03:16 49° SW 18:10:48 15° SSE visible
16 Nov 10.9 20:02:03 10° W 20:06:21 14° WSW 20:09:10 12° SW visible
17 Nov 9.7 17:32:34 10° WNW 17:41:40 51° SW 17:50:34 10° SE visible
17 Nov 11.0 19:40:01 10° W 19:44:51 15° SW 19:49:38 10° SSW visible
18 Nov 9.7 17:10:54 10° WNW 17:20:06 53° SW 17:29:02 10° SE visible
18 Nov 11.0 19:18:03 10° W 19:23:20 16° SW 19:28:33 10° SSW visible
19 Nov 9.7 16:49:13 10° WNW 16:58:30 55° SW 17:07:31 10° SE visible
19 Nov 11.0 18:56:09 10° W 19:01:48 18° SW 19:07:24 10° SSW visible
20 Nov 9.7 16:27:32 10° WNW 16:36:55 57° SW 16:46:00 10° SE visible
20 Nov 11.0 18:34:15 10° W 18:40:17 19° SW 18:46:14 10° SSW visible
21 Nov 9.7 16:05:52 10° WNW 16:15:18 59° SSW 16:24:28 10° SE visible
21 Nov 11.0 18:12:24 10° W 18:18:45 20° SW 18:25:00 10° S visible
